{"data":{"norad_id":61613,"intl_designator":"2024-188V","name":"ONEWEB-0708","alt_names":[],"object_type":"PAYLOAD","status":"ACTIVE","operator":null,"country":"UK","launch_date":"2024-10-20","launch_site_code":"AFWTR","launch_vehicle":null,"mission":null,"orbit_class":"UNKNOWN","rcs_meters":null,"size_class":null,"mass_kg":null,"dimensions":null,"purposes":["comms"],"wikipedia_slug":null,"has_3d_model":false,"image_url":null,"decayed_at":null,"tle_current":{"epoch":"2026-05-25T04:15:04.349952Z","epoch_age_seconds":59864,"freshness":"FRESH","line1":"1 61613U 24188V   26145.17713368  .00000138  00000+0  36027-3 0  9996","line2":"2 61613  87.8850  40.8587 0002139  94.2535 265.8837 13.10370628 80288","mean_motion":13.10370628,"eccentricity":0.0002139,"inclination_deg":87.885,"raan_deg":40.8587,"arg_perigee_deg":94.2535,"mean_anomaly_deg":265.8837,"bstar":0.00036027,"rev_number":8028,"period_min":109.89257308048,"perigee_km":1220.100003966,"apogee_km":1223.3512251925,"semimajor_km":7599.8626145793,"source":"CELESTRAK","updated_at":"2026-05-25T13:38:22.752054Z"}}}